SYRACUSE 4A

Last updated on Fri Jun 19 2026 17:09:34 GMT+0000 (Coordinated Universal Time)

1 49333U 21095B 26170.26038110 .00000129 00000+0 00000+0 0 9996 2 49333 0.0178 11.5381 0001635 69.1185 326.0593 1.00268750 17964
UTC large
Height (km)
Speed (km/s)
/
Latitude / Longitude
Inclination (degrees)
Orbital Period (minutes)
Azimuth
Elevation
Range (km)
Doppler Factor

Next 0 passes for location: London (51.5072 / 0.1276)

No passes found over London.
SYRACUSE 4A